Regional Weather Roundup
Issued by NWS

Home | Current Version | Previous Version | Graphics & Text | Print | Product List | Glossary On
Versions: 1 2 3 4 5 6 7 8 9 10 11 12 13 14 15 16 17 18 19 20 21 22 23 24 25 26 27 28 29 30 31 32 33 34 35 36 37 38 39 40 41 42 43 44 45 46 47 48 49 50
000
ASUS43 KOAX 151302
RWRNE

WEATHER ROUNDUP FOR NEBRASKA
NATIONAL WEATHER SERVICE OMAHA NE
700 AM CST SUN JAN 15 2017

NOTES: SATELLITE DATA IS BEING USED TO AUGMENT CLOUD COVER ABOVE
       12000 FEET.
       "FAIR" INDICATES FEW OR NO CLOUDS BELOW 12,000 FEET WITH NO
       SIGNIFICANT WEATHER AND/OR OBSTRUCTIONS TO VISIBILITY.

  * THESE STATIONS DO NOT REPORT WEATHER SUCH AS RAIN...SNOW OR FOG.

NEZ001>004-019>022-054>056-151400-
NEBRASKA PANHANDLE

CITY           SKY/WX    TMP DP  RH WIND       PRES   REMARKS
SCOTTSBLUFF    CLOUDY    17  13  84 CALM      30.17R
ALLIANCE       CLOUDY    10   7  87 SW8       30.16R WCI  -2
CHADRON        CLOUDY     6   3  87 W8        30.18S WCI  -7
KIMBALL        CLOUDY    29  28  96 NW5       30.13F WCI  24
SIDNEY         CLOUDY    27  23  85 CALM      30.15F
$$

NEZ057>060-069>072-079>082-151400-
SOUTHWEST NEBRASKA

CITY           SKY/WX    TMP DP  RH WIND       PRES   REMARKS
NORTH PLATTE   CLOUDY    23  19  85 CALM      30.21F
IMPERIAL       CLOUDY    21  18  88 CALM      30.19F
LEXINGTON      CLOUDY    29  21  71 SE3       30.25F
MCCOOK         CLOUDY    30  23  75 SE5       30.22F WCI  25
OGALLALA       CLOUDY    25  22  89 CALM      30.18F
$$

NEZ005>010-023>029-035>040-094-151400-
NORTH CENTRAL NEBRASKA

CITY           SKY/WX    TMP DP  RH WIND       PRES   REMARKS
VALENTINE      CLOUDY    15  11  83 SW8       30.18F WCI   4
AINSWORTH      CLEAR     18  17  93 S7        30.19F WCI   9
BROKEN BOW     CLOUDY    19  17  92 CALM      30.23F
O`NEILL        CLOUDY    16  15  94 S7        30.25F WCI   7
ORD            CLOUDY    22  17  81 CALM      30.25F
THEDFORD       CLOUDY    17  15  92 CALM      30.21R
$$

NEZ041-046>049-061>064-073>077-083>087-151400-
SOUTH CENTRAL NEBRASKA

CITY           SKY/WX    TMP DP  RH WIND       PRES   REMARKS
GRAND ISLAND   CLOUDY    28  21  75 S6        30.30S WCI  22
AURORA         MIX PCPN  29  22  75 S3        30.30S
HASTINGS       CLOUDY    28  22  78 S8        30.30S WCI  20
HEBRON         MIX PCPN  29  26  90 CALM      30.33S
HOLDREGE       MIX PCPN  29  17  59 SE3       30.25F
KEARNEY *      CLOUDY    28  19  69 CALM      30.28S
YORK           CLOUDY    28  21  74 CALM      30.31S
$$

NEZ011>018-030>034-042>045-151400-
NORTHEAST NEBRASKA

CITY           SKY/WX    TMP DP  RH WIND       PRES   REMARKS
NORFOLK        CLOUDY    20  16  84 CALM      30.31R
ALBION         CLOUDY    24  20  85 CALM      30.29S
BLAIR          CLOUDY    29  17  61 SE3       30.33S
FREMONT        CLOUDY    28  21  75 CALM      30.35R
TEKAMAH        CLOUDY    24  21  88 CALM      30.35F
WAYNE          CLOUDY    11   8  88 SW5       30.32S WCI   3
$$

NEZ050>053-065>068-078-088>093-151400-
SOUTHEAST NEBRASKA

CITY           SKY/WX    TMP DP  RH WIND       PRES   REMARKS
LINCOLN        MIX PCPN  31  21  66 E3        30.35F
OMAHA EPPLEY   CLOUDY    30  17  58 SE5       30.36F WCI  25
BEATRICE       MIX PCPN  31  26  81 SE3       30.33F
FALLS CITY     MIX PCPN  30  24  78 E5        30.35F WCI  25
NEBRASKA CITY  CLOUDY    29  18  62 CALM      30.35S
PLATTSMOUTH    CLOUDY    30  18  60 CALM      30.35S
$$

NEZ044-045-051>053-067-151400-
OMAHA AREA

CITY           SKY/WX    TMP DP  RH WIND       PRES   REMARKS
OMAHA EPPLEY   CLOUDY    30  17  58 SE5       30.36F WCI  25
BLAIR          CLOUDY    29  17  61 SE3       30.33S
FREMONT        CLOUDY    28  21  75 CALM      30.35R
MILLARD        CLOUDY    32  20  60 CALM      30.36S
OFFUTT AFB     CLOUDY    28  23  81 CALM      30.35F
PLATTSMOUTH    CLOUDY    30  18  60 CALM      30.35S
WAHOO          CLOUDY    29  21  72 S3        30.34F
$$




USA.gov is the U.S. government's official web portal to all federal, state and local government web resources and services.